| time (UTC) | temp F | wind direction | speed knots | gust knots | rain 1hr in | rain 24hr in | rain mn in | humidity % | barometer mb |
| 20260507011004 | 42 | 323 | 1.7 | 5.2 | 0.00 | 0.00 | 0.00 | 50 | 1013.1 |
| 20260507010004 | 42 | 14 | 1.7 | 7.8 | 0.00 | 0.00 | 0.00 | 50 | 1013.0 |
| 20260507005004 | 42 | 348 | 1.7 | 4.3 | 0.00 | 0.00 | 0.00 | 49 | 1013.1 |
| 20260507004003 | 43 | 23 | 1.7 | 5.2 | 0.00 | 0.00 | 0.00 | 49 | 1012.9 |
| 20260507003003 | 43 | 29 | 1.7 | 6.1 | 0.00 | 0.00 | 0.00 | 48 | 1012.8 |
| 20260507002004 | 43 | 341 | 2.6 | 6.1 | 0.00 | 0.00 | 0.00 | 47 | 1012.8 |
| 20260507001004 | 44 | 16 | 1.7 | 7.0 | 0.00 | 0.00 | 0.00 | 48 | 1012.5 |
| 20260507000004 | 44 | 332 | 2.6 | 7.0 | 0.00 | 0.00 | 0.00 | 46 | 1012.6 |
| 20260506235004 | 44 | 313 | 2.6 | 5.2 | 0.00 | 0.00 | 0.00 | 46 | 1012.5 |
| 20260506234004 | 45 | 8 | 2.6 | 10.4 | 0.00 | 0.00 | 0.00 | 45 | 1012.3 |
| 20260506232003 | 45 | 291 | 4.3 | 7.8 | 0.00 | 0.00 | 0.00 | 44 | 1012.1 |
| 20260506231003 | 45 | 337 | 2.6 | 7.8 | 0.00 | 0.00 | 0.00 | 44 | 1012.3 |
| 20260506230004 | 46 | 338 | 3.5 | 8.7 | 0.00 | 0.00 | 0.00 | 43 | 1012.2 |
| 20260506225004 | 46 | 285 | 3.5 | 7.8 | 0.00 | 0.00 | 0.00 | 43 | 1012.2 |
| 20260506223004 | 47 | 313 | 2.6 | 7.0 | 0.00 | 0.00 | 0.00 | 41 | 1012.1 |
| 20260506222004 | 47 | 345 | 2.6 | 7.8 | 0.00 | 0.00 | 0.00 | 41 | 1012.0 |
| 20260506221004 | 47 | 345 | 3.5 | 8.7 | 0.00 | 0.00 | 0.00 | 40 | 1012.0 |
| 20260506220004 | 47 | 33 | 3.5 | 8.7 | 0.00 | 0.00 | 0.00 | 40 | 1011.9 |
| 20260506215004 | 47 | 43 | 1.7 | 5.2 | 0.00 | 0.00 | 0.00 | 40 | 1011.9 |
| 20260506214003 | 46 | 358 | 3.5 | 5.2 | 0.00 | 0.00 | 0.00 | 40 | 1011.9 |
| 20260506213004 | 47 | 36 | 1.7 | 5.2 | 0.00 | 0.00 | 0.00 | 40 | 1011.9 |
| 20260506212004 | 47 | 26 | 0.9 | 7.0 | 0.00 | 0.00 | 0.00 | 39 | 1011.9 |
| 20260506210004 | 47 | 322 | 4.3 | 10.4 | 0.00 | 0.00 | 0.00 | 39 | 1011.8 |
| 20260506205004 | 47 | 19 | 2.6 | 7.8 | 0.00 | 0.00 | 0.00 | 39 | 1012.0 |
| 20260506204004 | 47 | 331 | 1.7 | 15.6 | 0.00 | 0.00 | 0.00 | 40 | 1011.9 |
| 20260506203004 | 47 | 331 | 4.3 | 7.8 | 0.00 | 0.00 | 0.00 | 40 | 1012.0 |
| 20260506202003 | 47 | 349 | 4.3 | 7.8 | 0.00 | 0.00 | 0.00 | 42 | 1012.0 |
| 20260506201004 | 47 | 350 | 2.6 | 10.4 | 0.00 | 0.00 | 0.00 | 43 | 1012.1 |
| 20260506195004 | 46 | 2 | 1.7 | 8.7 | 0.00 | 0.00 | 0.00 | 44 | 1012.3 |
| 20260506194004 | 47 | 351 | 1.7 | 10.4 | 0.00 | 0.00 | 0.00 | 44 | 1012.3 |
| 20260506193004 | 46 | 318 | 2.6 | 7.0 | 0.00 | 0.00 | 0.00 | 46 | 1012.2 |
| 20260506191004 | 46 | 4 | 4.3 | 12.2 | 0.00 | 0.00 | 0.00 | 47 | 1012.3 |
| 20260506190005 | 46 | 128 | 1.7 | 6.1 | 0.00 | 0.00 | 0.00 | 47 | 1012.3 |
| 20260506185004 | 44 | 321 | 3.5 | 12.2 | 0.00 | 0.00 | 0.00 | 48 | 1012.3 |
| 20260506184004 | 46 | 282 | 4.3 | 7.8 | 0.00 | 0.00 | 0.00 | 46 | 1012.3 |
| 20260506183005 | 45 | 30 | 1.7 | 7.0 | 0.00 | 0.00 | 0.00 | 48 | 1012.4 |
| 20260506175004 | 45 | 332 | 3.5 | 7.0 | 0.00 | 0.00 | 0.00 | 45 | 1012.5 |
| 20260506174004 | 44 | 283 | 2.6 | 7.8 | 0.00 | 0.00 | 0.00 | 46 | 1012.5 |
| 20260506172005 | 44 | 297 | 5.2 | 11.3 | 0.00 | 0.00 | 0.00 | 48 | 1012.7 |
| 20260506170004 | 43 | 341 | 2.6 | 10.4 | 0.00 | 0.00 | 0.00 | 50 | 1012.9 |
| 20260506164004 | 43 | 295 | 4.3 | 12.2 | 0.00 | 0.00 | 0.00 | 49 | 1013.2 |
| 20260506163004 | 43 | 264 | 5.2 | 13.0 | 0.00 | 0.00 | 0.00 | 49 | 1013.1 |
| 20260506162004 | 42 | 283 | 5.2 | 12.2 | 0.00 | 0.00 | 0.00 | 51 | 1013.2 |
| 20260506161004 | 42 | 248 | 4.3 | 7.8 | 0.00 | 0.00 | 0.00 | 52 | 1013.3 |
| 20260506160004 | 43 | 330 | 4.3 | 7.8 | 0.00 | 0.00 | 0.00 | 53 | 1013.1 |
| 20260506155004 | 42 | 228 | 0.9 | 6.1 | 0.00 | 0.00 | 0.00 | 54 | 1013.2 |
| 20260506154003 | 41 | 286 | 4.3 | 7.8 | 0.00 | 0.00 | 0.00 | 55 | 1013.1 |
| 20260506153004 | 41 | 314 | 2.6 | 11.3 | 0.00 | 0.00 | 0.00 | 55 | 1013.2 |
| 20260506152004 | 41 | 357 | 1.7 | 6.1 | 0.00 | 0.00 | 0.00 | 54 | 1013.1 |
| 20260506151004 | 41 | 315 | 5.2 | 7.8 | 0.00 | 0.00 | 0.00 | 55 | 1013.2 |
| 20260506150005 | 41 | 257 | 2.6 | 7.8 | 0.00 | 0.00 | 0.00 | 55 | 1013.1 |
| 20260506145004 | 40 | 37 | 2.6 | 5.2 | 0.00 | 0.00 | 0.00 | 56 | 1013.1 |
| 20260506144004 | 41 | 41 | 1.7 | 11.3 | 0.00 | 0.00 | 0.00 | 56 | 1012.9 |
| 20260506143005 | 40 | 358 | 1.7 | 10.4 | 0.00 | 0.00 | 0.00 | 57 | 1013.0 |
| 20260506142004 | 40 | 269 | 3.5 | 7.8 | 0.00 | 0.00 | 0.00 | 56 | 1013.1 |
| 20260506141003 | 41 | 11 | 1.7 | 5.2 | 0.00 | 0.00 | 0.00 | 58 | 1012.9 |
| 20260506140004 | 40 | 295 | 3.5 | 6.1 | 0.00 | 0.00 | 0.00 | 58 | 1012.9 |
| 20260506135004 | 40 | 0 | 1.7 | 7.0 | 0.00 | 0.00 | 0.00 | 59 | 1012.8 |
| 20260506134004 | 40 | 335 | 1.7 | 4.3 | 0.00 | 0.00 | 0.00 | 58 | 1012.8 |
| 20260506133004 | 39 | 54 | 0.9 | 6.1 | 0.00 | 0.00 | 0.00 | 60 | 1012.9 |
| 20260506132004 | 39 | 310 | 1.7 | 6.1 | 0.00 | 0.00 | 0.00 | 61 | 1012.9 |
| 20260506131004 | 38 | 15 | 1.7 | 5.2 | 0.00 | 0.00 | 0.00 | 63 | 1013.0 |
| 20260506130004 | 37 | 353 | 1.7 | 6.1 | 0.00 | 0.00 | 0.00 | 64 | 1013.1 |
| 20260506125004 | 37 | 3 | 1.7 | 5.2 | 0.00 | 0.00 | 0.00 | 65 | 1013.0 |
| 20260506122004 | 37 | 27 | 1.7 | 2.6 | 0.00 | 0.00 | 0.00 | 67 | 1012.7 |
| 20260506121004 | 36 | 56 | 1.7 | 4.3 | 0.00 | 0.00 | 0.00 | 69 | 1012.4 |
| 20260506120004 | 35 | 339 | 0.9 | 1.7 | 0.00 | 0.00 | 0.00 | 71 | 1012.4 |
| 20260506115003 | 35 | 319 | 0.9 | 2.6 | 0.00 | 0.00 | 0.00 | 72 | 1012.4 |
| 20260506114003 | 34 | 347 | 1.7 | 2.6 | 0.00 | 0.00 | 0.00 | 73 | 1012.3 |
| 20260506113003 | 34 | 333 | 1.7 | 2.6 | 0.00 | 0.00 | 0.00 | 74 | 1012.4 |
| 20260506112004 | 33 | 308 | 0.9 | 1.7 | 0.00 | 0.00 | 0.00 | 74 | 1012.2 |
| 20260506111004 | 33 | 324 | 0.0 | 0.9 | 0.00 | 0.00 | 0.00 | 77 | 1011.9 |
| 20260506105003 | 33 | 313 | 0.0 | 1.7 | 0.00 | 0.00 | 0.00 | 76 | 1011.9 |
| 20260506104003 | 33 | 311 | 0.0 | 1.7 | 0.00 | 0.00 | 0.00 | 74 | 1011.6 |
| 20260506103004 | 33 | 331 | 0.0 | 0.9 | 0.00 | 0.00 | 0.00 | 76 | 1011.6 |
| 20260506101004 | 33 | 44 | 0.0 | 0.9 | 0.00 | 0.00 | 0.00 | 76 | 1011.7 |
| 20260506100004 | 33 | 324 | 0.0 | 0.9 | 0.00 | 0.00 | 0.00 | 76 | 1011.6 |
| 20260506095004 | 33 | 29 | 0.0 | 0.9 | 0.00 | 0.00 | 0.00 | 77 | 1011.7 |
| 20260506093004 | 33 | 290 | 0.0 | 0.9 | 0.00 | 0.00 | 0.00 | 77 | 1011.7 |
| 20260506091004 | 33 | 5 | 0.0 | 0.0 | 0.00 | 0.00 | 0.00 | 76 | 1011.5 |
| 20260506090003 | 33 | 341 | 0.0 | 1.7 | 0.00 | 0.00 | 0.00 | 75 | 1011.5 |
| 20260506085003 | 33 | 43 | 0.0 | 0.9 | 0.00 | 0.00 | 0.00 | 74 | 1011.1 |
| 20260506084003 | 33 | 339 | 0.0 | 1.7 | 0.00 | 0.00 | 0.00 | 75 | 1011.4 |
| 20260506083004 | 33 | 339 | 0.0 | 1.7 | 0.00 | 0.00 | 0.00 | 73 | 1011.3 |
| 20260506081004 | 33 | 309 | 0.0 | 0.9 | 0.00 | 0.00 | 0.00 | 73 | 1011.2 |
| 20260506072004 | 32 | 317 | 0.0 | 0.9 | 0.00 | 0.00 | 0.00 | 75 | 1011.3 |
| 20260506071003 | 33 | 319 | 0.0 | 0.9 | 0.00 | 0.00 | 0.00 | 74 | 1011.3 |
| 20260506062004 | 34 | 330 | 0.0 | 0.9 | 0.00 | 0.00 | 0.00 | 71 | 1011.3 |
| 20260506061003 | 34 | 5 | 0.0 | 0.9 | 0.00 | 0.00 | 0.00 | 71 | 1011.3 |
| 20260506051003 | 34 | 26 | 0.9 | 0.9 | 0.00 | 0.00 | 0.00 | 69 | 1011.4 |
| 20260506045004 | 33 | 355 | 0.0 | 0.9 | 0.00 | 0.00 | 0.00 | 68 | 1011.1 |
| 20260506044004 | 33 | 315 | 0.0 | 0.9 | 0.00 | 0.00 | 0.00 | 70 | 1011.1 |
| 20260506043004 | 33 | 323 | 0.0 | 0.9 | 0.00 | 0.00 | 0.00 | 69 | 1011.0 |
| 20260506041003 | 33 | 351 | 0.0 | 0.9 | 0.00 | 0.00 | 0.00 | 68 | 1011.1 |
| 20260506040003 | 32 | 61 | 0.0 | 0.9 | 0.00 | 0.00 | 0.00 | 68 | 1010.9 |
| 20260506034004 | 30 | 17 | 0.0 | 0.9 | 0.00 | 0.00 | 0.00 | 72 | 1010.8 |
| 20260506033004 | 31 | 1 | 0.9 | 1.7 | 0.00 | 0.00 | 0.00 | 73 | 1010.7 |
| 20260506031003 | 31 | 337 | 0.9 | 0.9 | 0.00 | 0.00 | 0.00 | 68 | 1010.5 |
| 20260506030003 | 32 | 354 | 0.0 | 0.9 | 0.00 | 0.00 | 0.00 | 66 | 1010.4 |
| 20260506025004 | 33 | 326 | 0.0 | 0.9 | 0.00 | 0.00 | 0.00 | 66 | 1010.4 |
| 20260506024003 | 34 | 20 | 0.9 | 1.7 | 0.00 | 0.00 | 0.00 | 63 | 1010.3 |
| 20260506023004 | 34 | 355 | 0.9 | 0.9 | 0.00 | 0.00 | 0.00 | 62 | 1010.2 |
| 20260506022003 | 35 | 313 | 0.0 | 0.9 | 0.00 | 0.00 | 0.00 | 59 | 1010.1 |
| 20260506021004 | 36 | 13 | 0.9 | 0.9 | 0.00 | 0.00 | 0.00 | 59 | 1010.0 |
| 20260506015004 | 39 | 346 | 0.0 | 0.9 | 0.00 | 0.00 | 0.00 | 53 | 1009.9 |
| 20260506014004 | 40 | 22 | 0.0 | 0.9 | 0.00 | 0.00 | 0.00 | 51 | 1009.8 |
| 20260506012003 | 42 | 73 | 0.9 | 5.2 | 0.00 | 0.00 | 0.00 | 45 | 1009.6 |